QPF
0.00 0.01 0.01 0.01 0.01 0.01 0.01 0.01 0.00 0.01 0.01 0.01 0.02 0.01 0.00 0.00 0.00 0.00 0.00 0.00 0.00 0.01 0.01 0.00 0.00 0.00 0.00 0.01 0.01 0.01 0.01 0.01 0.01 0.01 0.01 0.02 0.02 0.02 0.02 0.02 0.01 0.01 0.02
0.00 0.01 0.01 0.01 0.01 0.01 0.01 0.01 0.01 0.01 0.01 0.01 0.01 0.01 0.01 0.01 0.00 0.00 0.00 0.00 0.01 0.01 0.01 0.01 0.00 0.00 0.00 0.01 0.01 0.01 0.01 0.01 0.01 0.01 0.02 0.01 0.02 0.03 0.03 0.03 0.02 0.02 0.02
0.00 0.00 0.00 0.00 0.01 0.01 0.01 0.01 0.01 0.01 0.01 0.01 0.01 0.01 0.01 0.01 0.01 0.01 0.01 0.01 0.01 0.01 0.01 0.01 0.01 0.01 0.01 0.01 0.02 0.02 0.02 0.02 0.01 0.02 0.02 0.01 0.01 0.02 0.03 0.04 0.03 0.03 0.03
0.00 0.01 0.00 0.01 0.01 0.01 0.01 0.01 0.01 0.01 0.01 0.01 0.01 0.01 0.01 0.01 0.01 0.01 0.01 0.01 0.01 0.02 0.02 0.02 0.01 0.01 0.01 0.01 0.02 0.02 0.02 0.02 0.02 0.02 0.01 0.01 0.02 0.04 0.04 0.07 0.04 0.03 0.03
0.01 0.02 0.01 0.01 0.01 0.01 0.01 0.01 0.01 0.02 0.01 0.01 0.01 0.01 0.01 0.01 0.01 0.01 0.02 0.02 0.01 0.02 0.01 0.01 0.01 0.01 0.01 0.01 0.02 0.01 0.02 0.02 0.02 0.01 0.01 0.01 0.04 0.05 0.04 0.05 0.04 0.03 0.03
0.02 0.03 0.02 0.01 0.02 0.01 0.01 0.01 0.02 0.02 0.01 0.01 0.01 0.01 0.01 0.01 0.01 0.02 0.02 0.02 0.02 0.03 0.03 0.03 0.02 0.02 0.02 0.01 0.01 0.01 0.01 0.01 0.02 0.02 0.02 0.01 0.02 0.04 0.03 0.04 0.05 0.05 0.04
0.04 0.04 0.03 0.03 0.03 0.03 0.02 0.01 0.02 0.02 0.02 0.02 0.02 0.03 0.02 0.02 0.02 0.03 0.03 0.05 0.05 0.05 0.05 0.05 0.04 0.04 0.03 0.02 0.02 0.01 0.01 0.01 0.02 0.02 0.02 0.02 0.02 0.02 0.02 0.04 0.05 0.05 0.05
0.03 0.04 0.04 0.04 0.03 0.02 0.02 0.02 0.02 0.03 0.03 0.03 0.03 0.03 0.03 0.02 0.03 0.03 0.05 0.05 0.06 0.06 0.07 0.07 0.06 0.05 0.04 0.04 0.03 0.03 0.03 0.03 0.03 0.03 0.03 0.03 0.02 0.02 0.03 0.05 0.05 0.06 0.06
0.03 0.04 0.05 0.05 0.04 0.03 0.03 0.03 0.03 0.03 0.03 0.03 0.03 0.03 0.02 0.02 0.03 0.03 0.04 0.05 0.06 0.06 0.07 0.08 0.07 0.06 0.06 0.05 0.05 0.04 0.04 0.04 0.03 0.03 0.03 0.03 0.02 0.02 0.03 0.05 0.06 0.06 0.06
0.06 0.08 0.08 0.06 0.05 0.04 0.04 0.03 0.02 0.02 0.03 0.03 0.03 0.03 0.02 0.02 0.02 0.03 0.04 0.05 0.05 0.05 0.05 0.08 0.10 0.10 0.08 0.07 0.06 0.06 0.06 0.06 0.04 0.03 0.04 0.03 0.03 0.03 0.03 0.04 0.06 0.07 0.07
0.07 0.15 0.15 0.07 0.05 0.06 0.05 0.04 0.03 0.04 0.05 0.04 0.03 0.03 0.02 0.01 0.02 0.03 0.03 0.04 0.04 0.04 0.06 0.09 0.10 0.10 0.10 0.10 0.09 0.09 0.08 0.06 0.06 0.06 0.04 0.04 0.04 0.04 0.05 0.06 0.06 0.07 0.08
0.02 0.05 0.09 0.08 0.05 0.05 0.06 0.06 0.06 0.07 0.07 0.04 0.04 0.04 0.04 0.04 0.03 0.03 0.04 0.04 0.05 0.06 0.07 0.09 0.10 0.11 0.12 0.12 0.11 0.10 0.08 0.05 0.05 0.04 0.03 0.03 0.03 0.05 0.08 0.09 0.07 0.07 0.09
0.02 0.03 0.05 0.05 0.04 0.04 0.06 0.06 0.06 0.08 0.07 0.06 0.05 0.04 0.05 0.05 0.05 0.05 0.07 0.07 0.07 0.08 0.09 0.10 0.10 0.09 0.09 0.11 0.12 0.11 0.09 0.07 0.06 0.04 0.04 0.03 0.03 0.04 0.06 0.09 0.08 0.08 0.09
0.03 0.04 0.04 0.04 0.03 0.04 0.03 0.03 0.03 0.05 0.06 0.05 0.05 0.05 0.05 0.06 0.06 0.07 0.08 0.08 0.07 0.08 0.09 0.10 0.11 0.10 0.09 0.09 0.09 0.10 0.09 0.08 0.07 0.06 0.05 0.04 0.03 0.03 0.05 0.09 0.09 0.08 0.08
0.04 0.05 0.05 0.05 0.04 0.03 0.04 0.04 0.04 0.03 0.04 0.05 0.06 0.05 0.05 0.06 0.07 0.08 0.09 0.08 0.07 0.07 0.09 0.09 0.09 0.09 0.10 0.09 0.07 0.08 0.09 0.07 0.06 0.06 0.05 0.04 0.04 0.04 0.05 0.08 0.09 0.09 0.09
0.03 0.04 0.04 0.04 0.03 0.04 0.04 0.05 0.07 0.05 0.04 0.04 0.04 0.05 0.05 0.07 0.07 0.09 0.11 0.10 0.07 0.06 0.07 0.08 0.08 0.09 0.10 0.10 0.09 0.09 0.08 0.08 0.06 0.06 0.05 0.04 0.04 0.04 0.05 0.06 0.08 0.09 0.10
0.02 0.03 0.03 0.04 0.04 0.05 0.07 0.08 0.07 0.07 0.05 0.05 0.06 0.05 0.06 0.06 0.06 0.08 0.08 0.07 0.07 0.09 0.10 0.09 0.09 0.10 0.10 0.11 0.11 0.09 0.08 0.08 0.07 0.06 0.05 0.04 0.03 0.03 0.03 0.04 0.06 0.08 0.10
0.02 0.04 0.05 0.05 0.06 0.08 0.10 0.11 0.08 0.06 0.06 0.06 0.05 0.05 0.04 0.04 0.05 0.06 0.05 0.04 0.04 0.06 0.08 0.09 0.10 0.10 0.10 0.10 0.08 0.07 0.08 0.07 0.06 0.06 0.05 0.03 0.03 0.03 0.02 0.02 0.03 0.05 0.07
0.01 0.03 0.07 0.09 0.08 0.10 0.09 0.10 0.08 0.07 0.05 0.06 0.08 0.07 0.05 0.05 0.05 0.06 0.04 0.03 0.04 0.05 0.06 0.06 0.08 0.10 0.10 0.08 0.06 0.06 0.06 0.06 0.06 0.06 0.05 0.05 0.04 0.03 0.03 0.03 0.03 0.04 0.05
0.01 0.02 0.05 0.08 0.08 0.08 0.08 0.07 0.07 0.07 0.07 0.10 0.09 0.06 0.05 0.05 0.04 0.05 0.05 0.04 0.05 0.05 0.06 0.06 0.06 0.07 0.08 0.08 0.06 0.05 0.04 0.04 0.05 0.06 0.06 0.06 0.05 0.03 0.04 0.03 0.05 0.04 0.04
0.01 0.02 0.05 0.08 0.11 0.12 0.13 0.13 0.14 0.13 0.11 0.10 0.06 0.04 0.04 0.05 0.05 0.05 0.05 0.05 0.04 0.04 0.04 0.05 0.05 0.06 0.06 0.08 0.07 0.05 0.04 0.03 0.04 0.04 0.05 0.05 0.04 0.03 0.03 0.03 0.04 0.06 0.05
0.02 0.04 0.05 0.07 0.10 0.12 0.12 0.12 0.12 0.11 0.09 0.06 0.04 0.04 0.04 0.05 0.05 0.04 0.05 0.04 0.04 0.04 0.04 0.05 0.05 0.05 0.05 0.07 0.07 0.06 0.05 0.04 0.04 0.03 0.04 0.04 0.04 0.03 0.03 0.03 0.03 0.04 0.05
0.03 0.04 0.04 0.05 0.06 0.06 0.06 0.07 0.08 0.07 0.05 0.04 0.03 0.03 0.03 0.03 0.04 0.04 0.04 0.04 0.04 0.05 0.05 0.05 0.06 0.06 0.07 0.07 0.08 0.09 0.07 0.05 0.05 0.04 0.04 0.03 0.04 0.04 0.04 0.03 0.03 0.04 0.04
0.03 0.04 0.04 0.03 0.03 0.03 0.03 0.05 0.07 0.09 0.08 0.07 0.05 0.03 0.03 0.03 0.03 0.04 0.05 0.05 0.05 0.06 0.07 0.07 0.08 0.09 0.11 0.10 0.11 0.12 0.13 0.12 0.11 0.07 0.06 0.05 0.04 0.04 0.04 0.04 0.03 0.03 0.05
0.03 0.03 0.03 0.02 0.02 0.02 0.03 0.04 0.04 0.04 0.06 0.08 0.07 0.06 0.05 0.05 0.05 0.05 0.05 0.05 0.06 0.06 0.07 0.07 0.07 0.08 0.09 0.09 0.10 0.11 0.13 0.14 0.14 0.11 0.08 0.07 0.05 0.04 0.04 0.04 0.03 0.03 0.04
0.03 0.03 0.03 0.03 0.02 0.02 0.03 0.03 0.03 0.03 0.03 0.04 0.05 0.05 0.07 0.08 0.08 0.07 0.06 0.06 0.06 0.07 0.07 0.06 0.05 0.05 0.06 0.06 0.07 0.07 0.08 0.09 0.08 0.08 0.06 0.05 0.05 0.04 0.03 0.03 0.03 0.03 0.04
MSLP
1004.35 1004.20 1004.43 1004.99 1005.77 1006.60 1007.35 1007.89 1008.21 1008.33 1008.35 1008.37 1008.50 1008.81 1009.30 1009.92 1010.57 1011.18 1011.67 1012.01 1012.24 1012.40 1012.56 1012.78 1013.08 1013.45 1013.84 1014.19 1014.45 1014.61 1014.67 1014.68 1014.70 1014.79 1014.98 1015.26 1015.60 1015.93 1016.22 1016.41 1016.52 1016.56 1016.60
1005.07 1004.86 1005.00 1005.47 1006.14 1006.88 1007.54 1008.03 1008.32 1008.43 1008.45 1008.49 1008.64 1008.96 1009.44 1010.03 1010.64 1011.19 1011.61 1011.90 1012.08 1012.22 1012.39 1012.64 1012.99 1013.41 1013.84 1014.23 1014.50 1014.65 1014.70 1014.70 1014.71 1014.80 1014.99 1015.29 1015.66 1016.03 1016.34 1016.56 1016.68 1016.72 1016.75
1005.69 1005.40 1005.45 1005.82 1006.40 1007.06 1007.67 1008.14 1008.43 1008.56 1008.62 1008.69 1008.87 1009.18 1009.63 1010.15 1010.67 1011.12 1011.45 1011.67 1011.81 1011.95 1012.14 1012.44 1012.85 1013.33 1013.82 1014.24 1014.53 1014.68 1014.71 1014.67 1014.66 1014.73 1014.92 1015.22 1015.59 1015.99 1016.33 1016.59 1016.74 1016.81 1016.85
1006.16 1005.81 1005.78 1006.06 1006.55 1007.15 1007.73 1008.20 1008.52 1008.71 1008.82 1008.95 1009.15 1009.45 1009.85 1010.29 1010.71 1011.06 1011.29 1011.44 1011.55 1011.69 1011.93 1012.29 1012.76 1013.31 1013.84 1014.28 1014.58 1014.71 1014.71 1014.65 1014.59 1014.63 1014.79 1015.08 1015.46 1015.87 1016.24 1016.54 1016.74 1016.86 1016.94
1006.51 1006.11 1006.00 1006.21 1006.63 1007.19 1007.74 1008.22 1008.59 1008.84 1009.03 1009.21 1009.45 1009.75 1010.11 1010.47 1010.80 1011.06 1011.22 1011.32 1011.41 1011.57 1011.85 1012.25 1012.78 1013.37 1013.93 1014.39 1014.67 1014.79 1014.75 1014.65 1014.55 1014.55 1014.68 1014.95 1015.31 1015.73 1016.13 1016.47 1016.72 1016.90 1017.03
1006.81 1006.35 1006.19 1006.33 1006.70 1007.20 1007.74 1008.23 1008.62 1008.93 1009.19 1009.43 1009.70 1010.01 1010.34 1010.67 1010.94 1011.14 1011.27 1011.35 1011.45 1011.62 1011.93 1012.37 1012.93 1013.53 1014.09 1014.53 1014.80 1014.89 1014.83 1014.69 1014.57 1014.53 1014.63 1014.88 1015.23 1015.65 1016.06 1016.43 1016.72 1016.95 1017.14
1007.13 1006.65 1006.44 1006.52 1006.82 1007.26 1007.75 1008.22 1008.63 1008.97 1009.26 1009.55 1009.85 1010.17 1010.51 1010.82 1011.08 1011.27 1011.40 1011.49 1011.62 1011.83 1012.15 1012.60 1013.16 1013.74 1014.27 1014.67 1014.91 1014.97 1014.90 1014.75 1014.62 1014.58 1014.67 1014.90 1015.24 1015.64 1016.05 1016.43 1016.75 1017.01 1017.24
1007.55 1007.04 1006.79 1006.81 1007.04 1007.41 1007.82 1008.23 1008.61 1008.93 1009.23 1009.52 1009.84 1010.19 1010.55 1010.88 1011.16 1011.39 1011.55 1011.69 1011.85 1012.09 1012.42 1012.86 1013.37 1013.90 1014.37 1014.73 1014.93 1014.97 1014.90 1014.77 1014.67 1014.65 1014.75 1014.99 1015.32 1015.71 1016.10 1016.47 1016.79 1017.06 1017.30
1008.09 1007.57 1007.30 1007.25 1007.39 1007.65 1007.96 1008.27 1008.56 1008.82 1009.08 1009.36 1009.67 1010.03 1010.41 1010.78 1011.11 1011.40 1011.63 1011.83 1012.04 1012.29 1012.62 1013.03 1013.48 1013.93 1014.33 1014.62 1014.79 1014.83 1014.77 1014.70 1014.65 1014.68 1014.83 1015.09 1015.42 1015.80 1016.17 1016.51 1016.81 1017.05 1017.29
1008.72 1008.22 1007.92 1007.81 1007.85 1007.98 1008.15 1008.33 1008.50 1008.66 1008.84 1009.06 1009.34 1009.69 1010.08 1010.49 1010.88 1011.24 1011.54 1011.81 1012.07 1012.35 1012.67 1013.03 1013.41 1013.77 1014.09 1014.32 1014.45 1014.50 1014.49 1014.47 1014.50 1014.61 1014.82 1015.12 1015.48 1015.86 1016.21 1016.52 1016.78 1016.99 1017.18
1009.41 1008.93 1008.61 1008.43 1008.36 1008.35 1008.38 1008.41 1008.43 1008.46 1008.53 1008.67 1008.90 1009.22 1009.60 1010.03 1010.47 1010.89 1011.26 1011.60 1011.91 1012.21 1012.51 1012.83 1013.14 1013.44 1013.68 1013.85 1013.97 1014.02 1014.05 1014.11 1014.22 1014.41 1014.70 1015.05 1015.44 1015.83 1016.17 1016.46 1016.68 1016.85 1017.00
1010.07 1009.63 1009.29 1009.04 1008.87 1008.73 1008.61 1008.48 1008.35 1008.25 1008.21 1008.25 1008.40 1008.66 1009.02 1009.45 1009.91 1010.37 1010.80 1011.19 1011.55 1011.87 1012.17 1012.47 1012.73 1012.97 1013.16 1013.30 1013.39 1013.46 1013.53 1013.64 1013.82 1014.09 1014.44 1014.85 1015.27 1015.68 1016.03 1016.31 1016.51 1016.65 1016.77
1010.65 1010.23 1009.88 1009.58 1009.31 1009.06 1008.80 1008.54 1008.28 1008.06 1007.90 1007.84 1007.90 1008.10 1008.41 1008.81 1009.27 1009.74 1010.20 1010.63 1011.03 1011.38 1011.71 1011.99 1012.25 1012.46 1012.63 1012.75 1012.84 1012.92 1013.01 1013.16 1013.39 1013.70 1014.09 1014.53 1014.99 1015.42 1015.79 1016.08 1016.29 1016.43 1016.53
1011.09 1010.70 1010.33 1009.99 1009.65 1009.31 1008.95 1008.58 1008.21 1007.89 1007.63 1007.49 1007.47 1007.58 1007.83 1008.18 1008.60 1009.06 1009.53 1009.99 1010.41 1010.81 1011.17 1011.49 1011.77 1012.00 1012.17 1012.31 1012.41 1012.49 1012.60 1012.75 1012.98 1013.29 1013.69 1014.14 1014.61 1015.06 1015.46 1015.78 1016.02 1016.19 1016.30
1011.36 1010.99 1010.63 1010.25 1009.87 1009.46 1009.03 1008.59 1008.16 1007.77 1007.44 1007.22 1007.12 1007.16 1007.33 1007.61 1007.97 1008.40 1008.85 1009.31 1009.76 1010.19 1010.61 1010.99 1011.33 1011.62 1011.85 1012.02 1012.15 1012.24 1012.34 1012.47 1012.67 1012.94 1013.30 1013.72 1014.18 1014.63 1015.06 1015.42 1015.71 1015.92 1016.07
1011.47 1011.13 1010.76 1010.38 1009.97 1009.53 1009.07 1008.59 1008.12 1007.68 1007.31 1007.03 1006.87 1006.83 1006.92 1007.12 1007.41 1007.77 1008.18 1008.63 1009.10 1009.57 1010.05 1010.51 1010.95 1011.33 1011.64 1011.88 1012.05 1012.17 1012.25 1012.34 1012.48 1012.68 1012.96 1013.31 1013.72 1014.16 1014.59 1014.98 1015.32 1015.59 1015.81
1011.44 1011.12 1010.77 1010.39 1009.97 1009.53 1009.05 1008.57 1008.08 1007.63 1007.23 1006.91 1006.69 1006.58 1006.59 1006.70 1006.91 1007.19 1007.55 1007.97 1008.43 1008.95 1009.48 1010.03 1010.56 1011.05 1011.47 1011.81 1012.05 1012.19 1012.27 1012.33 1012.39 1012.49 1012.67 1012.93 1013.25 1013.64 1014.05 1014.46 1014.83 1015.16 1015.43
1011.31 1011.01 1010.68 1010.32 1009.91 1009.48 1009.01 1008.53 1008.04 1007.58 1007.16 1006.81 1006.55 1006.38 1006.32 1006.35 1006.47 1006.67 1006.96 1007.32 1007.77 1008.29 1008.86 1009.48 1010.11 1010.72 1011.26 1011.70 1012.02 1012.22 1012.32 1012.35 1012.34 1012.35 1012.41 1012.56 1012.78 1013.09 1013.45 1013.84 1014.22 1014.58 1014.89
1011.11 1010.83 1010.52 1010.18 1009.80 1009.38 1008.93 1008.45 1007.97 1007.51 1007.07 1006.71 1006.41 1006.19 1006.07 1006.02 1006.06 1006.18 1006.39 1006.69 1007.09 1007.59 1008.19 1008.85 1009.56 1010.26 1010.91 1011.46 1011.87 1012.15 1012.29 1012.31 1012.27 1012.20 1012.16 1012.19 1012.31 1012.51 1012.79 1013.13 1013.49 1013.85 1014.19
1010.85 1010.59 1010.31 1009.99 1009.63 1009.23 1008.79 1008.33 1007.85 1007.38 1006.94 1006.55 1006.23 1005.99 1005.81 1005.71 1005.68 1005.73 1005.86 1006.09 1006.43 1006.89 1007.47 1008.14 1008.88 1009.65 1010.38 1011.03 1011.55 1011.91 1012.10 1012.16 1012.11 1012.00 1011.89 1011.82 1011.83 1011.93 1012.11 1012.37 1012.68 1013.01 1013.35
1010.55 1010.30 1010.03 1009.73 1009.40 1009.01 1008.58 1008.12 1007.64 1007.17 1006.73 1006.33 1006.01 1005.74 1005.54 1005.41 1005.33 1005.32 1005.39 1005.55 1005.82 1006.21 1006.74 1007.38 1008.12 1008.91 1009.70 1010.42 1011.02 1011.47 1011.74 1011.86 1011.84 1011.73 1011.59 1011.45 1011.38 1011.38 1011.47 1011.64 1011.88 1012.17 1012.48
1010.21 1009.95 1009.69 1009.40 1009.07 1008.69 1008.27 1007.81 1007.34 1006.87 1006.42 1006.03 1005.71 1005.45 1005.24 1005.10 1005.01 1004.96 1004.99 1005.09 1005.29 1005.61 1006.06 1006.65 1007.34 1008.12 1008.91 1009.67 1010.34 1010.87 1011.23 1011.42 1011.46 1011.39 1011.26 1011.11 1010.98 1010.91 1010.93 1011.01 1011.19 1011.42 1011.70
1009.83 1009.55 1009.26 1008.97 1008.64 1008.26 1007.84 1007.39 1006.92 1006.45 1006.02 1005.65 1005.34 1005.09 1004.91 1004.79 1004.70 1004.65 1004.65 1004.71 1004.85 1005.11 1005.49 1005.99 1006.63 1007.35 1008.13 1008.89 1009.59 1010.17 1010.61 1010.89 1011.02 1011.02 1010.93 1010.81 1010.68 1010.59 1010.55 1010.59 1010.70 1010.88 1011.13
1009.42 1009.08 1008.76 1008.44 1008.10 1007.72 1007.31 1006.86 1006.40 1005.95 1005.54 1005.19 1004.90 1004.69 1004.54 1004.44 1004.38 1004.35 1004.35 1004.40 1004.51 1004.71 1005.03 1005.47 1006.03 1006.69 1007.41 1008.15 1008.86 1009.47 1009.97 1010.33 1010.55 1010.63 1010.63 1010.57 1010.48 1010.41 1010.37 1010.39 1010.47 1010.63 1010.86
1008.98 1008.58 1008.21 1007.85 1007.49 1007.10 1006.69 1006.25 1005.81 1005.38 1004.99 1004.67 1004.41 1004.23 1004.11 1004.04 1004.01 1004.01 1004.03 1004.09 1004.20 1004.39 1004.67 1005.06 1005.56 1006.16 1006.83 1007.53 1008.21 1008.84 1009.37 1009.79 1010.09 1010.27 1010.36 1010.39 1010.38 1010.37 1010.37 1010.41 1010.50 1010.65 1010.87
1008.55 1008.07 1007.64 1007.24 1006.85 1006.45 1006.04 1005.61 1005.19 1004.79 1004.42 1004.11 1003.87 1003.70 1003.60 1003.55 1003.55 1003.58 1003.64 1003.73 1003.86 1004.07 1004.35 1004.72 1005.19 1005.75 1006.38 1007.03 1007.69 1008.31 1008.85 1009.31 1009.67 1009.93 1010.11 1010.24 1010.33 1010.40 1010.48 1010.57 1010.70 1010.87 1011.10
Thickness
5821 5817 5803 5799 5795 5792 5790 5787 5785 5782 5779 5776 5772 5769 5766 5762 5760 5757 5755 5753 5751 5750 5749 5747 5746 5745 5744 5743 5741 5740 5739 5739 5738 5737 5736 5735 5735 5735 5735 5735 5735 5737 5735
5822 5814 5801 5797 5793 5790 5787 5784 5782 5779 5776 5772 5769 5766 5763 5760 5757 5754 5752 5750 5749 5747 5746 5745 5743 5742 5741 5740 5739 5738 5737 5736 5735 5735 5734 5734 5733 5733 5732 5732 5733 5735 5733
5819 5811 5799 5794 5790 5787 5784 5781 5779 5776 5772 5769 5766 5763 5760 5757 5755 5752 5750 5748 5746 5744 5743 5742 5740 5739 5738 5737 5736 5735 5734 5733 5733 5732 5732 5736 5735 5731 5730 5729 5729 5729 5729
5816 5809 5800 5791 5787 5784 5781 5778 5776 5772 5769 5766 5763 5760 5757 5754 5752 5749 5747 5745 5743 5742 5740 5739 5737 5736 5735 5734 5733 5732 5731 5730 5730 5730 5733 5737 5736 5731 5728 5727 5726 5726 5726
5812 5806 5797 5788 5784 5781 5778 5775 5772 5769 5766 5762 5760 5757 5754 5752 5749 5747 5744 5742 5741 5739 5737 5736 5735 5734 5732 5731 5730 5729 5728 5727 5727 5728 5734 5734 5733 5728 5725 5724 5724 5723 5723
5808 5803 5793 5785 5781 5778 5774 5771 5768 5765 5762 5759 5756 5754 5751 5749 5747 5744 5742 5740 5738 5736 5734 5733 5732 5730 5729 5728 5727 5726 5725 5724 5725 5730 5731 5731 5730 5726 5723 5721 5721 5721 5721
5804 5800 5791 5781 5777 5774 5771 5767 5764 5762 5759 5756 5754 5751 5749 5746 5744 5741 5739 5738 5736 5734 5732 5730 5729 5727 5726 5725 5724 5723 5722 5721 5724 5729 5729 5728 5727 5723 5721 5719 5719 5719 5719
5800 5796 5787 5777 5774 5770 5767 5763 5761 5758 5756 5753 5751 5748 5745 5743 5740 5738 5736 5735 5733 5731 5729 5727 5726 5724 5723 5721 5720 5720 5719 5718 5722 5726 5725 5725 5723 5720 5718 5717 5717 5717 5717
5795 5791 5785 5778 5772 5766 5763 5760 5757 5754 5752 5749 5747 5745 5742 5739 5736 5734 5732 5731 5729 5728 5727 5725 5723 5721 5719 5718 5717 5717 5716 5716 5719 5723 5723 5722 5719 5717 5715 5715 5715 5715 5715
5790 5786 5781 5777 5773 5768 5763 5757 5754 5751 5748 5745 5743 5741 5738 5736 5734 5731 5730 5728 5726 5725 5723 5722 5720 5718 5716 5715 5714 5713 5713 5712 5716 5721 5720 5719 5716 5714 5713 5713 5712 5712 5713
5784 5782 5778 5775 5770 5767 5764 5757 5752 5748 5745 5742 5740 5736 5734 5735 5734 5731 5729 5726 5723 5721 5719 5718 5716 5715 5713 5712 5711 5711 5710 5714 5718 5718 5717 5716 5713 5711 5710 5710 5710 5710 5710
5777 5776 5774 5771 5767 5763 5760 5755 5751 5747 5744 5741 5739 5736 5733 5733 5731 5730 5726 5722 5719 5717 5716 5715 5713 5711 5710 5712 5711 5708 5711 5713 5715 5715 5714 5711 5709 5708 5708 5708 5708 5708 5708
5774 5770 5770 5766 5762 5759 5755 5752 5748 5745 5742 5739 5736 5733 5730 5729 5728 5727 5724 5720 5718 5716 5715 5714 5712 5712 5712 5711 5710 5710 5710 5712 5713 5713 5713 5709 5706 5705 5705 5705 5705 5706 5706
5769 5766 5764 5761 5757 5753 5751 5748 5744 5742 5739 5736 5732 5729 5727 5726 5725 5723 5720 5719 5716 5714 5712 5712 5711 5711 5709 5708 5708 5708 5708 5707 5708 5709 5708 5706 5704 5702 5702 5703 5703 5703 5704
5763 5761 5759 5755 5751 5747 5744 5741 5740 5736 5735 5731 5727 5725 5722 5722 5721 5719 5715 5714 5713 5712 5710 5709 5708 5707 5706 5705 5705 5705 5705 5705 5705 5705 5705 5703 5701 5700 5700 5700 5701 5701 5701
5756 5754 5753 5749 5746 5742 5738 5735 5733 5731 5727 5726 5723 5720 5718 5717 5715 5713 5713 5710 5709 5708 5708 5705 5704 5703 5702 5701 5701 5701 5701 5701 5700 5700 5701 5701 5699 5698 5697 5697 5698 5698 5699
5749 5748 5746 5744 5740 5736 5732 5730 5728 5725 5722 5720 5718 5715 5713 5712 5709 5708 5706 5705 5705 5704 5702 5701 5700 5699 5698 5698 5697 5698 5698 5698 5698 5697 5697 5698 5698 5697 5695 5695 5695 5695 5696
5743 5740 5739 5738 5734 5730 5726 5724 5723 5720 5717 5714 5712 5711 5709 5707 5704 5702 5701 5701 5699 5699 5699 5697 5696 5695 5694 5693 5694 5694 5695 5694 5694 5694 5694 5694 5694 5695 5694 5693 5692 5693 5693
5736 5733 5731 5729 5726 5724 5721 5718 5716 5712 5709 5708 5707 5706 5704 5703 5700 5698 5697 5696 5695 5695 5694 5693 5692 5690 5689 5689 5690 5690 5691 5691 5691 5691 5691 5691 5690 5690 5692 5692 5691 5691 5691
5729 5726 5723 5721 5719 5717 5715 5711 5708 5705 5704 5702 5701 5700 5699 5697 5694 5693 5692 5691 5690 5689 5687 5686 5684 5684 5684 5684 5686 5687 5687 5689 5689 5689 5688 5689 5687 5688 5689 5690 5689 5690 5689
5723 5719 5716 5713 5711 5709 5707 5704 5700 5699 5698 5697 5696 5694 5693 5691 5689 5687 5687 5686 5684 5683 5681 5681 5679 5679 5679 5680 5679 5679 5683 5685 5685 5685 5685 5685 5686 5686 5687 5686 5687 5687 5687
5715 5712 5710 5706 5704 5702 5700 5697 5695 5693 5692 5691 5690 5687 5686 5685 5683 5682 5680 5680 5679 5677 5675 5674 5673 5673 5675 5675 5672 5671 5672 5676 5678 5682 5681 5681 5682 5684 5684 5685 5684 5683 5683
5709 5706 5703 5699 5696 5694 5692 5691 5689 5687 5686 5685 5683 5681 5680 5679 5678 5676 5675 5674 5673 5673 5671 5669 5668 5667 5668 5669 5669 5666 5664 5666 5671 5675 5676 5676 5676 5677 5680 5681 5681 5681 5680
5703 5701 5696 5692 5689 5687 5685 5685 5682 5680 5678 5677 5676 5676 5674 5673 5673 5671 5669 5668 5668 5667 5666 5665 5665 5664 5662 5663 5663 5662 5661 5661 5658 5662 5668 5670 5671 5671 5673 5675 5677 5677 5676
5698 5695 5691 5687 5683 5680 5678 5677 5675 5675 5674 5673 5671 5669 5669 5668 5667 5666 5664 5663 5662 5661 5661 5659 5658 5658 5658 5658 5657 5657 5655 5655 5654 5652 5655 5660 5664 5666 5667 5668 5669 5671 5671
5692 5688 5685 5680 5677 5674 5673 5672 5669 5668 5667 5666 5665 5664 5664 5664 5663 5661 5660 5659 5658 5657 5656 5654 5653 5653 5652 5651 5651 5651 5650 5649 5650 5649 5649 5652 5655 5659 5661 5663 5663 5664 5665